Tracking 19149 objects as of 22-Apr-2018
HD Live streaming from Space Station
objects crossing your sky now

FENGYUN 1C DEB

Track FENGYUN 1C DEB now!
10-day predictions


NORAD ID: 30641
Int'l Code: 1999-025ANY
Perigee: 568.8 km
Apogee: 820.4 km
Inclination: 99.0 °
Period: 98.5 minutes
Semi major axis: 7065 km
RCS: 0.0235 m2 (small)
Launch date: May 10, 1999
Source: People's Republic of China (PRC)
Launch site: Taiyaun Space Center, China (TSC)

Note: This is SATELLITE DEBRIS
aabbcc
Your satellite tracking list
Your tracking list is empty




NASA's NSSDC Master Catalog

Two Line Element Set (TLE):
1 30641U 99025ANY 18111.48375653 +.00000446 +00000-0 +81975-4 0  9990
2 30641 099.0122 112.0897 0178048 088.3215 061.1491 14.61782637596391
Source of the keplerian elements: AFSPC